Regional Weather Roundup
Issued by NWS

Home | Current Version | Previous Version | Graphics & Text | Print | Product List | Glossary On
Versions: 1 2 3 4 5 6 7 8 9 10 11 12 13 14 15 16 17 18 19 20 21 22 23 24 25 26 27 28 29 30 31 32 33 34 35 36 37 38 39 40 41 42 43 44 45 46 47 48 49 50
000
ASUS43 KLSX 280510
RWRMO

WEATHER SUMMARY FOR MISSOURI
NATIONAL WEATHER SERVICE SPRINGFIELD MO
1200 AM CDT SAT MAY 28 2016

NOTE: "FAIR" INDICATES FEW OR NO CLOUDS BELOW 12,000 FEET WITH NO
       SIGNIFICANT WEATHER AND/OR OBSTRUCTIONS TO VISIBILITY.
       CURRENT SKY AND/OR WEATHER CONDITIONS ARE NOT AVAILABLE FOR
       CHILLICOTHE AND FARMINGTON.

MOZ001>031-035>038-043-044-053-054-280600-
...NORTHERN AND WESTERN MISSOURI...

CITY           SKY/WX    TMP DP  RH WIND       PRES   REMARKS
KANSAS CTY INT RAIN      60  58  92 SW5       29.81R FOG
KANSAS C DTWN  RAIN      61  59  93 N6        29.78F FOG
LEE`S SUMMIT   RAIN      60  58  92 W9        29.81S
ST JOSEPH      LGT RAIN  61  59  93 SW9       29.79R
CHILLICOTHE      N/A     67  65  93 E3        29.77F
KIRKSVILLE     LGT RAIN  64  63  96 SW6       29.79R FOG

$$
MOZ066>068-077>081-088>096-101>105-280600-
...SOUTHWEST MISSOURI...

CITY           SKY/WX    TMP DP  RH WIND       PRES   REMARKS
SPRINGFIELD    CLOUDY    67  62  84 S13       29.81S
JOPLIN         CLOUDY    69  63  81 S9        29.81R

$$
MOZ032>034-039>042-045>050-055>058-069>072-280600-
...CENTRAL MISSOURI...

CITY           SKY/WX    TMP DP  RH WIND       PRES   REMARKS
COLUMBIA       MOCLDY    68  67  96 S8        29.79S
JEFFERSON CITY CLOUDY    68  67  96 SE5       29.79S
ROLLA          PTCLDY    68  65  90 S10       29.81S
SEDALIA        CLOUDY    70  66  87 S9        29.78F
WHITEMAN AFB   MOCLDY    69  69 100 S8        29.76S
WARRENSBURG    RAIN      61  59  94 W20G35    29.79R

$$
MOZ051-052-059>065-280600-
...EAST CENTRAL MISSOURI...

CITY           SKY/WX    TMP DP  RH WIND       PRES   REMARKS
ST LOUIS INTL  MOCLDY    72  66  83 S10       29.83F
SPIRIT OF STL  HVY RAIN  71  68  90 S7        29.82S FOG
ST CHARLES     PTCLDY    70  69  97 S10       29.81F

$$
MOZ072>076-082>087-097>100-106>115-280600-
...SOUTH CENTRAL AND SOUTHEAST MISSOURI...

CITY           SKY/WX    TMP DP  RH WIND       PRES   REMARKS
CAPE GIRARDEAU CLOUDY    71  65  81 S14G20    29.89R
FARMINGTON     CLOUDY    69  65  86 S13G23    29.88R
POPLAR BLUFF   CLOUDY    70  66  87 SW8       29.88S
WEST PLAINS    CLOUDY    68  63  84 S12       29.88S

$$




USA.gov is the U.S. government's official web portal to all federal, state and local government web resources and services.